Regional Weather Roundup
Issued by NWS

Home | Current Version | Previous Version | Text Only | Print | Product List | Glossary On
Versions: 1 2 3 4 5 6 7 8 9 10 11 12 13 14 15 16 17 18 19 20 21 22 23 24 25 26 27 28 29 30 31 32 33 34 35 36 37 38 39 40 41 42 43 44 45 46 47 48 49 50
000
ASUS44 KBMX 271310
RWRAL

ALABAMA REGIONAL WEATHER ROUNDUP
NATIONAL WEATHER SERVICE BIRMINGHAM AL
700 AM CST THU NOV 27 2014

NOTE: "FAIR" INDICATES FEW OR NO CLOUDS BELOW 12,000 FEET
WITH NO SIGNIFICANT WEATHER AND/OR OBSTRUCTIONS TO VISIBILITY.

THE REMARK "TC" DENOTES TEMPERATURE IN DEGREES CELSIUS.

ALZ001>011-014-016>018-020-271400-
NORTH ALABAMA

CITY           SKY/WX    TMP DP  RH WIND       PRES   REMARKS
MUSCLE SHOALS  CLOUDY    40  31  70 N12G21    30.33R WCI  33
HUNTSVILLE     CLOUDY    40  32  73 NW9       30.29R WCI  34
DECATUR        CLOUDY    39  32  76 NW10      30.30R WCI  32
HALEYVILLE     MOCLDY    35  32  89 NW3       30.33R
GADSDEN        CLOUDY    39  30  70 W8        30.27R WCI  34
$$

ALZ012-013-022-023-030>036-040>044-271400-
WEST CENTRAL ALABAMA

CITY           SKY/WX    TMP DP  RH WIND       PRES   REMARKS
TUSCALOOSA     CLEAR     37  29  72 W5        30.36R WCI  33
$$

ALZ015-024>027-033>036-040>044-271400-
CENTRAL ALABAMA

CITY           SKY/WX    TMP DP  RH WIND       PRES   REMARKS
BIRMINGHAM     PTCLDY    37  31  78 NW7       30.32R WCI  32
MONTGOMERY     CLEAR     41  31  67 W9        30.32R
SHELBY CO ARPT CLEAR     39  31  72 NW6       30.31R WCI  35
MAXWELL AFB    CLEAR     40  33  76 W5        30.31R
GREENVILLE     FAIR      36  32  85 CALM      30.31R
$$

ALZ019-021-028-029-037-038-045>048-271400-
EAST CENTRAL ALABAMA

CITY           SKY/WX    TMP DP  RH WIND       PRES   REMARKS
ANNISTON       PTCLDY    41  31  67 W8G17     30.27R
ALEXANDER CITY CLEAR     34  29  83 CALM      30.28R
AUBURN         CLEAR     37  27  65 NW5       30.29R WCI  34
$$

ALZ051>064-271400-
SOUTHWEST ALABAMA

CITY           SKY/WX    TMP DP  RH WIND       PRES   REMARKS
MOBILE         CLEAR     42  36  79 NW7       30.36R
BROOKLEY FIELD CLEAR     46  36  68 NW12      30.37R
EVERGREEN      CLEAR     36  33  89 CALM      30.34R
$$

ALZ049-050-065>069-271400-
SOUTHEAST ALABAMA

CITY           SKY/WX    TMP DP  RH WIND       PRES   REMARKS
DOTHAN         CLEAR     43  37  79 W5        30.33R
OZARK          CLEAR     41  36  80 W5        30.31R
TROY           CLEAR     34  32  92 CALM      30.30R
EUFAULA        FAIR      43  32  65 CALM      30.27R
$$


USA.gov is the U.S. government's official web portal to all federal, state and local government web resources and services.